sat.trackr.live / text

‹ back to catalog

STARLINK-11279 [DTC]

NORAD 61206 · 2024-171G

PAYLOAD ACTIVE UNKNOWN

§ Identity

Operator
Country
US
Launch date
2024-09-20
Launch site
AFWTR
Launch vehicle
Mass (kg)
RCS (m²)

Purposes: comms

External: N2YO · Heavens-Above · Gunter

§ Orbital elements

Epoch: 2026-05-25T01:01:20.455104Z

Period
91.74 min
Inclination
53.1583°
Eccentricity
0.0000983
Mean motion
15.69711019 rev/d
Perigee alt
359.1 km
Apogee alt
360.4 km
Semi-major
6,737.9 km
B*
1.1489e-5
RAAN
159.6594°
Arg perigee
73.1454°
Mean anomaly
286.9671°
Rev number
9,639

§ Raw data

STARLINK-11279 [DTC]1 61206U 24171G   26145.04259786  .00000804  00000+0  11489-4 0  99972 61206  53.1583 159.6594 0000983  73.1454 286.9671 15.69711019 96391

JSON: /api/v1/satellites/61206 · /tle

For live sub-satellite position, see the globe view (requires WebGL).

§ Visibility from observer

Set your observer location to see the next 7 days of passes ≥ 10°. The values pass through the URL so the page stays shareable.

No JS? Fill the form by hand. The geolocation button needs JavaScript.